Weather History for Eureka, NV

Change the Weather History Date:

Sunday, December 9, 2012

  Actual Average Record
Temperature  
Mean Temperature 28 °F 26 °F  
Max Temperature 37 °F 39 °F 61 °F (1990)
Min Temperature 18 °F 12 °F -17 °F (2013)
Degree Days  
Heating Degree Days 37 39  
Month to date heating degree days 247 342  
Since 1 July heating degree days 1543 2101  
Cooling Degree Days 0 0  
Month to date cooling degree days 0 0  
Year to date cooling degree days 529 288  
Moisture  
Dew Point 16 °F    
Average Humidity 64    
Maximum Humidity 84    
Minimum Humidity 44    
Precipitation  
Precipitation 0.00 in 0.02 in 0.24 in (1963)
Month to date precipitation 0.14 0.16  
Year to date precipitation 6.06 8.55  
Sea Level Pressure  
Sea Level Pressure 30.28 in    
Wind  
Wind Speed 7 mph (NNW)    
Max Wind Speed 21 mph    
Max Gust Speed 28 mph    
T = Trace of Precipitation, MM = Missing Value Source: NWS Daily Summary

Daily Weather History Graph

Daily Weather History Graph

Search for Another Location

Airport:

Trip Planner

Search our weather history database for the weather conditions in past years. The results will help you decide how hot, cold, wet, or windy it might be!

Date:

Astronomy

Dec. 09, 2012 Rise Set
Actual Time 6:53 AM PST 4:19 PM PST
Civil Twilight 6:23 AM PST 4:50 PM PST
Nautical Twilight 5:49 AM PST 5:23 PM PST
Astronomical Twilight 5:16 AM PST 5:56 PM PST
Moon 2:32 AM PST (12/9) 1:29 PM PST (12/9)
Length of Visible Light 10h 26m
Length of Day
9h 26m
Waning Crescent, 17% of the Moon is Illuminated
Dec 9
Waning Crescent
Dec 13
New
Dec 19
First Quarter
Dec 28
Full
Jan 4
Last Quarter

Hourly Weather History & Observations

Time (PST) Temp. Windchill Dew Point Humidity Pressure Visibility Wind Dir Wind Speed Gust Speed Precip Events Conditions
12:53 AM 26.1 °F - 17.1 °F 69% 30.07 in - Calm Calm - N/A   Unknown
1:53 AM 24.1 °F - 16.0 °F 71% 30.09 in - Calm Calm - N/A   Unknown
2:53 AM 24.1 °F 18.2 °F 17.1 °F 75% 30.09 in - SW 4.6 mph - N/A   Unknown
3:53 AM 23.0 °F 18.4 °F 17.1 °F 78% 30.12 in - WNW 3.5 mph - N/A   Unknown
4:53 AM 24.1 °F 18.2 °F 18.0 °F 77% 30.15 in - North 4.6 mph - N/A   Unknown
5:53 AM 21.0 °F 11.4 °F 16.0 °F 81% 30.19 in - North 8.1 mph - N/A   Unknown
6:53 AM 19.9 °F 11.1 °F 15.1 °F 81% 30.24 in - NNW 6.9 mph - N/A   Unknown
7:53 AM 23.0 °F 15.8 °F 16.0 °F 74% 30.27 in - NNW 5.8 mph - N/A   Unknown
8:53 AM 30.0 °F 20.5 °F 17.1 °F 59% 30.27 in - NNW 11.5 mph - N/A   Unknown
9:53 AM 33.1 °F 23.9 °F 17.1 °F 52% 30.29 in - North 12.7 mph - N/A   Unknown
10:53 AM 34.0 °F 23.4 °F 16.0 °F 48% 30.29 in - North 17.3 mph 24.2 mph N/A   Unknown
11:53 AM 36.0 °F 27.5 °F 16.0 °F 44% 30.28 in - North 12.7 mph 19.6 mph N/A   Unknown
12:53 PM 35.1 °F 25.5 °F 16.0 °F 46% 30.28 in - North 15.0 mph 24.2 mph N/A   Unknown
1:53 PM 36.0 °F 27.5 °F 15.1 °F 43% 30.28 in - North 12.7 mph 17.3 mph N/A   Unknown
2:53 PM 36.0 °F 28.0 °F 15.1 °F 43% 30.28 in - NNE 11.5 mph - N/A   Unknown
3:53 PM 33.1 °F 23.9 °F 15.1 °F 48% 30.33 in - North 12.7 mph - N/A   Unknown
4:53 PM 28.0 °F 20.0 °F 15.1 °F 58% 30.36 in - NE 8.1 mph - N/A   Unknown
5:53 PM 25.0 °F 18.1 °F 15.1 °F 66% 30.40 in - North 5.8 mph - N/A   Unknown
6:53 PM 19.9 °F 10.1 °F 12.0 °F 71% 30.44 in - NNW 8.1 mph - N/A   Unknown
7:53 PM 21.0 °F 14.6 °F 12.9 °F 71% 30.41 in - South 4.6 mph - N/A   Unknown
8:53 PM 19.9 °F 12.1 °F 12.9 °F 74% 30.39 in - SSW 5.8 mph - N/A   Unknown
9:53 PM 21.0 °F - 12.9 °F 71% 30.38 in - Calm Calm - N/A   Unknown
10:53 PM 23.0 °F 18.4 °F 16.0 °F 74% 30.37 in - South 3.5 mph - N/A   Unknown
11:53 PM 25.0 °F 20.7 °F 18.0 °F 75% 30.34 in - South 3.5 mph - N/A   Unknown